Regional Weather Roundup
Issued by NWS State College, PA

Home | Current Version | Previous Version | Text Only | Print | Product List | Glossary Off
Versions: 1 2 3 4 5 6 7 8 9 10 11 12 13 14 15 16 17 18 19 20 21 22 23 24 25 26 27 28 29 30 31 32 33 34 35 36 37 38 39 40 41 42 43 44 45 46 47 48 49 50

000
ASUS41 KCTP 151510
RWRCTP

REGIONAL WEATHER ROUNDUP
NATIONAL WEATHER SERVICE STATE COLLEGE PA
1100 AM EDT MON SEP 15 2014

Note: "fair" indicates few or no clouds below 12,000 feet with no
significant weather and/or obstructions to visibility.

* = STATION THAT DOES NOT REPORT PRECIPITATION /E.G. RAIN...SNOW...ETC/
    THUNDER OR FOG.

PAZ002>004-007>009-013>016-020>023-029>032-151600-
WESTERN PENNSYLVANIA

CITY           SKY/WX    TMP DP  RH WIND       PRES   REMARKS
ERIE           MOSUNNY   63  46  54 S7        30.21S
MEADVILLE      MOSUNNY   60  48  64 S6        30.21F
FRANKLIN*      MOSUNNY   59  45  58 SE7       30.24F
NEW CASTLE     FAIR      61  51  69 VRB3      30.23F
BEAVER COUNTY  SUNNY     61  50  67 S5        30.23F
BUTLER*        SUNNY     61  46  59 S5        30.26S
PITTSBURGH INT MOSUNNY   60  47  61 SE5       30.24S
PITTSBURGH     MOSUNNY   58  48  69 SE5       30.23F
INDIANA*       SUNNY     61  45  55 VRB5      30.28F
LATROBE        SUNNY     61  52  72 CALM      30.25F
WASHINGTON CO* SUNNY     61  48  63 S5        30.24F
$$

PAZ004>006-010>012-017>019-024>028-033>037-041-042-045-046-049>053-151600-
CENTRAL PENNSYLVANIA

CITY           SKY/WX    TMP DP  RH WIND       PRES   REMARKS
BRADFORD       SUNNY     57  42  57 MISG      30.22F
DUBOIS         SUNNY     57  46  66 S6        30.23F
CLEARFIELD     MOSUNNY   51  50  96 SW3       30.26S
JOHNSTOWN      PTSUNNY   55  46  71 W6        30.25S
ALTOONA        SUNNY     58  52  80 CALM      30.26F
STATE COLLEGE  MOSUNNY   46  46 100 CALM      30.27S
WILLIAMSPORT   CLOUDY    51  47  86 W5        30.26F
SELINSGROVE    MOSUNNY   56  51  84 CALM      30.27F
FT INDIANTOWN  SUNNY     62  50  63 VRB3      30.25F
CAPITAL CITY   MOSUNNY   64  50  60 SE3       30.26S
HARRISBURG     SUNNY     64  50  60 SW3       30.25S
YORK           SUNNY     64  48  56 VRB3      30.25F
$$

PAZ038>040-043-044-047-048-054-055-060>062-067>071-151600-
EASTERN PENNSYLVANIA

CITY           SKY/WX    TMP DP  RH WIND       PRES   REMARKS
SCRANTON       SUNNY     60  44  55 W3        30.24F
MOUNT POCONO   MOSUNNY   58  41  53 NW6       30.25S
ALLENTOWN      SUNNY     62  47  57 W3        30.25F
QUAKERTOWN*    SUNNY     63  46  55 MISG      30.26S
READING        MOSUNNY   62  49  62 SW3       30.25F
LANCASTER      SUNNY     62  45  53 CALM      30.26S
COATESVILLE    SUNNY     63  46  55 NE3       30.26S
POTTSTOWN      SUNNY     63  48  58 VRB3      30.26S
BLUE BELL      SUNNY     64  46  52 CALM      30.24F
DOYLESTOWN     SUNNY     64  47  53 CALM      30.24S
WILLOW GROVE   NOT AVBL
NORTH PHILA    SUNNY     67  45  45 E5        30.26S
PHILADELPHIA   MOSUNNY   66  47  50 VRB3      30.25R
$$



USA.gov is the U.S. government's official web portal to all federal, state and local government web resources and services.